Regional Weather Roundup
Issued by NWS Grand Forks, ND

Home | Current Version | Previous Version | Text Only | Print | Product List | Glossary On
Versions: 1 2 3 4 5 6 7 8 9 10 11 12 13 14 15 16 17 18 19 20 21 22 23 24 25 26 27 28 29 30 31 32 33 34 35 36 37 38 39 40 41 42 43 44 45 46 47 48 49 50
000
ASUS43 KFGF 221410
RWRFGF
PRAIRIE TO PINES  WEATHER ROUNDUP
NATIONAL WEATHER SERVICE EASTERN NORTH DAKOTA/GRAND FORKS ND
900 AM CDT FRI AUG 22 2014

 **SATELLITE DATA USED TO AUGMENT SKY COVER AT AUTOMATED STATIONS**
 *****  WEATHER ACROSS EASTERN NORTH DAKOTA  *****

CITY           SKY/WX    TMP DP  RH WIND       PRES   REMARKS
GRAND FORKS    CLOUDY    67  65  93 N14       29.96S
GRAND FRKS AFB CLOUDY    65  65 100 N10       29.99S
GRAND FRKS NWS   N/A     64 N/A N/A N2          N/A
DEVILS LAKE    CLOUDY    63  57  82 N9        30.02S
FARGO          CLOUDY    68  68 100 N7        29.96R FOG
WAHPETON ARPT  CLOUDY    68  64  88 CALM      29.96F VSB 3/4
$$

 ***** WEATHER ACROSS CENTRAL AND WESTERN NORTH DAKOTA  *****

CITY           SKY/WX    TMP DP  RH WIND       PRES   REMARKS
BISMARCK       CLOUDY    67  65  93 W5        30.04S
MINOT          CLOUDY    59  58  96 N12       30.06S FOG
JAMESTOWN      CLOUDY    68  66  93 NE6       30.01R
MINOT AFB      CLOUDY    59  59 100 N12       30.07S FOG
GARRISON         N/A     62  61  96 N8        30.05R
WILLISTON      CLOUDY    60  55  83 N12       30.09S
DICKINSON      CLOUDY    63  60  90 CALM      30.06R
HETTINGER      CLOUDY    63  59  87 CALM      30.08R
$$

 *****  OTHER AIRPORT OBSERVATIONS IN OUR AREA  *****

CITY           SKY/WX    TMP DP  RH WIND       PRES   REMARKS
WALHALLA         N/A     63  63 100 N9        30.03R
GRAFTON AIRPOR CLOUDY    63  63 100 N14G22    29.99R FOG
VALLEY CITY AR CLOUDY    66  66 100 N10       30.00S
CANDO          CLOUDY    61  59  94 NE9       30.05S
CAVALIER APRT  CLOUDY    63  63 100 N10       30.01S FOG
GWINNER        CLOUDY    68  68 100 N7        30.00R
SHEYENNE NWR     N/A     68  68  99 N3        29.95S
ROLLA          CLOUDY    57  57 100 N14       30.08R FOG
 ***** THE ABOVE OBSERVATIONS ARE NON NWS ARE NOT QUALITY
       CONTROLLED AND MAY MIS-REPORT RAIN FOR SNOW...
$$

  *****  WEATHER ACROSS NORTHERN MINNESOTA  *****

CITY           SKY/WX    TMP DP  RH WIND       PRES   REMARKS
FLAG ISLAND    CLOUDY    66  64  94 CALM      29.98R
WARROAD        CLOUDY    68  64  88 E5        29.98S
ROSEAU         CLOUDY    68  63  83 N5        29.98S
HALLOCK        CLOUDY    66  64  94 N9        29.98S FOG
THF RVR FALLS  CLOUDY    70  66  88 CALM      29.97R
BAUDETTE       CLOUDY    66  62  87 E7        29.98S
WASKISH        CLOUDY    66  64  94 CALM      29.97F
CROOKSTON      CLOUDY    66  66 100 N9        29.97S FOG
$$
  *****  WEATHER ACROSS CENTRAL AND WEST MINNESOTA  *****

CITY           SKY/WX    TMP DP  RH WIND       PRES   REMARKS
FOSSTON        RAIN      70  66  88 S3        29.97S
BEMIDJI        CLOUDY    67  65  92 CALM      29.98S
PARK RAPIDS    CLOUDY    70  66  87 CALM      29.97S
ELBOW LAKE     PTSUNNY   72  69  92 CALM      29.96S
WADENA         CLOUDY    66  66 100 NE3       29.97S
DETROIT LAKES  CLOUDY    70  68  94 CALM      29.99S
MOORHEAD       CLOUDY    70  70 100 N5        29.97R FOG
FERGUS FALLS   PTSUNNY   70  70 100 CALM      29.96S
MORRIS MN      CLOUDY    72  72 100 CALM      29.96R FOG
STAPLES        CLOUDY    66  64  94 N3        29.97S
$$
  *****  WEATHER ELSEWHERE ACROSS MINNESOTA  *****

CITY           SKY/WX    TMP DP  RH WIND       PRES   REMARKS
DULUTH         FOG       64  61  90 E6        29.96S VSB 1/2
INTRNTL FALLS  CLOUDY    66  62  87 CALM      29.99S
ELY            CLOUDY    63  61  94 CALM      29.99R FOG
CLOQUET        FOG       63  61  94 SE3       29.96S VSB 1/4
WHEATON        FOG       66  66 100 CALM      29.98S VSB 1/4
BRAINERD       CLOUDY    65  64  97 NE7       29.97S
HIBBING        CLOUDY    67  62  84 E3        29.98R
ALEXANDRIA     PTSUNNY   73  68  84 CALM      29.98R
SAINT CLOUD    CLOUDY    70  67  90 N7        29.94S
MINNEAPOLIS    CLOUDY    72  68  87 N8        29.94R
$$

  *****  WEATHER ACROSS SOUTH DAKOTA  *****

CITY           SKY/WX    TMP DP  RH WIND       PRES   REMARKS
SIOUX FALLS    MOSUNNY   74  69  85 NE6       29.96R
BROOKINGS      NOT AVBL
WATERTOWN      SUNNY     68  67  96 N3        29.98S
HURON          MOSUNNY   69  65  86 NW5       29.97S
SISSETON         N/A     69  69 100 N9        29.96S
ABERDEEN       CLOUDY    65  65 100 N10       30.00R
MITCHELL       FOG       67  67 100 N7        29.98R VSB 1/4
PIERRE         PTSUNNY   69  66  90 NE13      29.99R
MOBRIDGE       LGT RAIN  65  63  93 CALM      30.00F
RAPID CITY     CLOUDY    62  61  96 NW8       30.09R
$$

  *****  SOME WEATHER IN NEARBY STATES *****

CITY           SKY/WX    TMP DP  RH WIND       PRES   REMARKS
GLASGOW MT     CLOUDY    59  57  93 NE12      30.10R
GREAT FALLS MT LGT RAIN  52  52 100 N9        30.13S VSB 1
CHEYENNE WY    CLOUDY    60  50  69 SW6       30.23R
SCOTTSBLUFF NE CLOUDY    65  55  70 NW10      30.11S
OMAHA NE       PTSUNNY   77  71  82 SE7       29.91R
DES MOINES IA  PTSUNNY   77  70  79 E6        29.92S
DAVENPORT IA   TSTM      71  68  90 S7        29.91F FOG
CHICAGO IL     CLOUDY    77  71  82 SW5       29.93S
EAU CLAIRE WI  CLOUDY    73  73 100 W3        29.90S FOG
LA CROSSE WI   CLOUDY    75  72  90 S7        29.91R FOG
$$

  *****  SOME NATIONAL WEATHER *****

CITY           SKY/WX    TMP DP  RH WIND       PRES   REMARKS
LA GUARDIA NY  PTSUNNY   72  61  68 NE9       30.05R
RALEIGH NC     PTSUNNY   82  71  69 SW3       30.04S
ATLANTA GA     MOSUNNY   83  73  72 NW8       30.14R
NEW ORLEANS LA MOSUNNY   84  75  74 W3        30.12R HX  92
OKLAHOMA CITY  SUNNY     83  68  60 S17G26    30.00R
ALBUQUERQUE NM LGT RAIN  68  50  52 W7        30.23R
SALT LAKE CITY PTSUNNY   69  47  45 SE13      29.99R
LOS ANGELES CA PTCLDY    68  63  84 W6        29.95R
BOISE ID       MOSUNNY   62  44  51 CALM      29.92R
SEATTLE WA     CLEAR     58  52  80 NE5       30.04S
$$

*** WEATHER ACROSS MANITOBA...SASKATCHEWAN AND ONTARIO ***
                ***ONTARIO***

CITY           SKY/WX    TMP DP  RH WIND       PRES   REMARKS
GERALDTON      MOSUNNY   70  63  78 CALM      30.03F
THUNDER BAY    CLOUDY    63  61  94 E9        30.00F
SIOUX LOOKOUT  PTSUNNY   66  63  88 SE3       30.02R
TORONTO        PTSUNNY   66  63  88 N6        30.02S
BIG TROUT LK   CLOUDY    66  61  82 S6        29.99R
PICKLE LAKE    CLOUDY    66  61  82 S6        30.03R
DRYDEN         LGT RAIN  64  63  94 E5        30.01S FOG
KENORA         CLOUDY    66  63  88 S5        30.01R
$$
                *** MANITOBA***

CITY           SKY/WX    TMP DP  RH WIND       PRES   REMARKS
BRANDON        CLOUDY    61  57  88 N3        30.10R
DAUPHIN        CLOUDY    59  57  94 N12G17    30.12R
ISLAND LAKE    LGT RAIN  52  50  93 N8        30.08S FOG
PILOT MOUND      N/A     59  57  94 N9          N/A
THE PAS        PTSUNNY   59  52  77 NE6       30.19R
THOMPSON       LGT RAIN  50  50 100 N7        30.21R
WINNIPEG       DRIZZLE   63  61  94 N6        30.02S FOG
LYNN LAKE      CLOUDY    52  46  82 MISG      30.26R
CHURCHILL      PTSUNNY   46  43  87 N20       30.21R
GILLAM         CLOUDY    48  48 100 N13       30.16R FOG
$$
                ***SASKATCHEWAN***

CITY           SKY/WX    TMP DP  RH WIND       PRES   REMARKS
ESTEVAN        PTSUNNY   59  55  88 N8        30.13S
KINDERSLEY     PTSUNNY   48  46  93 N9        30.26R
LLOYDMINSTER   PTSUNNY   48  43  81 NE5       30.31R
PRINCE ALBERT  PTSUNNY   55  50  82 N7        30.25S
REGINA         PTSUNNY   59  54  82 NE8       30.18R
YORKTON        MOSUNNY   57  54  88 N10       30.17S
N. BATTLEFORD  CLOUDY    48  46  93 N6        30.31R
LA RONGE       PTSUNNY   54  50  87 N7        30.27R
SASKATOON      PTSUNNY   54  48  82 N8        30.27R
SWIFT CURRENT  LGT RAIN  52  52 100 NE14      30.20S FOG
$$
NOTE: THESE ARE AUTOMATED STATIONS WITH LIMITED QUALITY CONTROL
      "FAIR" INDICATES FEW OR NO CLOUDS BELOW 12,000 FEET WITH NO
      SIGNIFICANT WEATHER AND/OR OBSTRUCTIONS TO VISIBILITY.
      SKY/WX - SKY CONDITION AND SIGNIFICANT WEATHER.
      TMP - AIR TEMPERATURE.    DP   - DEWPOINT TEMPERATURE.
      RH  - RELATIVE HUMIDITY.  PRES - PRESSURE.
      HX  - HEAT INDEX.         WCI  - WIND CHILL INDEX.
$


USA.gov is the U.S. government's official web portal to all federal, state and local government web resources and services.